Flag for French Polynesia Weather past 2 weeks in Gambier Islands, French Polynesia

Now
71 °F

Mild.


Feels Like: 68 °F
Forecast: 74 / 76 °F
Wind: 1 mph from West

Location: Rikitea

Current Time: Jul 28, 2014 at 1:19:29 AM

Latest Report: Jul 28, 2014 at 12:00 AM


Visibility: N/A

Pressure: 30.11 "Hg

Humidity: 91%

Dew point: 68 °F

Location of Gambier IslandsLocation

Historic Weather in Gambier Islands — Graph

°F

Gambier Islands temperature yesterday

Maximum temperature yesterday: 78 °F (at 11:00 AM)
Minimum temperature yesterday: 71 °F (at 3:00 AM)
Average temperature yesterday: 74 °F

Past Weeks' High & Low Weather Summary

 TemperatureHumidityPressure
High80 °F (Jul 13, 11:00 AM)97% (Jul 14, 5:00 PM)30.14 "Hg (Jul 14, 5:00 PM)
Low65 °F (Jul 21, 5:00 AM)59% (Jul 16, 11:00 AM)29.89 "Hg (Jul 20, 4:00 AM)
Average71 °F80%30.03 "Hg
* Reported Midnight between Jul 12 and Jul 13 — Midnight between Jul 27 and Jul 28, Gambier Islands, Weather by CustomWeather, © 2014

Note: Actual official high and low records may vary slightly from our data, if they occured in-between our weather recording intervals... More about our weather records

Advertising

Gambier Islands weather history for previous 24 hours

 ConditionsComfort  
Time TempWeatherWind HumidityBarometerVisibility
12:00 AM
Jul 28
71 °FMild.1 mph91%30.11 "HgN/A
11:00 PM
Jul 27
72 °FMild.5 mph89%30.11 "HgN/A
10:00 PM72 °FMild.8 mph88%30.11 "HgN/A
9:00 PM72 °FMild.7 mph89%30.11 "HgN/A
8:00 PM72 °FMild.7 mph88%30.11 "HgN/A
7:00 PM72 °FMild.7 mph88%30.09 "HgN/A
6:00 PM72 °FMild.6 mph87%30.09 "HgN/A
5:00 PM74 °FPassing clouds.6 mph83%30.07 "Hg19 mi
4:00 PM76 °FPassing clouds.3 mph79%30.06 "Hg19 mi
3:00 PM77 °FScattered clouds.7 mph77%30.05 "Hg19 mi
2:00 PM77 °FScattered clouds.6 mph75%30.05 "Hg19 mi
1:00 PM78 °FScattered clouds.8 mph75%30.06 "Hg19 mi
12:00 PM78 °FScattered clouds.8 mph74%30.08 "Hg19 mi
11:00 AM78 °FPassing clouds.12 mph74%30.09 "Hg19 mi
10:00 AM77 °FScattered clouds.9 mph78%30.11 "Hg19 mi
9:00 AM76 °FPassing clouds.10 mph77%30.10 "Hg19 mi
8:00 AM74 °FPassing clouds.8 mph80%30.09 "Hg19 mi
7:00 AM72 °FPassing clouds.9 mph86%30.07 "Hg16 mi
6:00 AM72 °FPassing clouds.9 mph85%30.04 "Hg16 mi
5:00 AM72 °FMild.12 mph86%30.02 "HgN/A
4:00 AM72 °FMild.8 mph86%30.02 "HgN/A
3:00 AM71 °FMild.8 mph87%30.03 "HgN/A
2:00 AM72 °FMild.9 mph86%30.04 "HgN/A
1:00 AM72 °FMild.9 mph86%30.06 "HgN/A
Weather by CustomWeather, © 2014

See weather overviewHow to use our weather pages